Location: Asheville, NC
(35.6000°N, 82.5500°W)
Time: 19:34:35
(UTC-05:00)

ISS - Pass Details

Date: 07 December 2020
Orbit: 418 x 419 km, 51.6° (Epoch: 17 January)

Event Time Altitude Azimuth Distance (km) Brightness Sun altitude
Rises 19:14:48 0° 307° (NW) 2,359 0.6 -23.3°
Reaches altitude 10° 19:16:56 10° 301° (WNW) 1,492 -0.4 -23.8°
Enters shadow 19:19:25 39° 269° (W) 636 -2.4 -24.2°
